Montreal, Quebec

5:24 PM EDT on April 27, 2017 (GMT -0400)
Montreal-Pierre Elliott Trudeau Int'l Airport

Weather History for CYUL - August, 2013

Change the Weather History Date:

Thursday, August 22, 2013

  Actual Average Record
Temperature  
Mean Temperature 70 °F -  
Max Temperature 74 °F 70 °F 84 °F (2001)
Min Temperature 64 °F 51 °F 50 °F (2004)
Cooling Degree Days 5    
Growing Degree Days 20 (Base 50)    
Moisture  
Dew Point 66 °F    
Average Humidity 84    
Maximum Humidity 94    
Minimum Humidity 68    
Precipitation  
Precipitation 0.16 in 0.12 in - ()
Sea Level Pressure  
Sea Level Pressure 29.86 in    
Wind  
Wind Speed 11 mph ()    
Max Wind Speed 22 mph    
Max Gust Speed 29 mph    
Visibility 8.8 miles    
Events Rain    
Averages and records for this station are not official NWS values.
T = Trace of Precipitation, MM = Missing Value Source: Averaged Metar Reports

Daily Weather History Graph

Daily Weather History Graph

Search for Another Location

Airport or City:

Trip Planner

Search our weather history database for the weather conditions in past years. The results will help you decide how hot, cold, wet, or windy it might be!

Date:

Astronomy

Aug. 22, 2013 Rise Set
Actual Time 6:04 AM EDT 7:50 PM EDT
Civil Twilight 5:32 AM EDT 8:21 PM EDT
Nautical Twilight 4:54 AM EDT 8:59 PM EDT
Astronomical Twilight 4:12 AM EDT 9:41 PM EDT
Moon 8:22 PM EDT (8/22) 7:58 AM EDT (8/22)
Length of Visible Light 14h 48m
Length of Day
13h 45m
Waning Gibbous, 97% of the Moon is Illuminated
Aug 22
Waning Gibbous
Aug 28
Last Quarter
Sep 5
New
Sep 12
First Quarter
Sep 19
Full

Hourly Weather History & Observations

Time (EDT) Temp. Dew Point Humidity Pressure Visibility Wind Dir Wind Speed Gust Speed Precip Events Conditions
12:00 AM 75.2 °F 64.4 °F 69% 29.94 in 15.0 mi SW 13.8 mph 21.9 mph N/A   Scattered Clouds
1:00 AM 73.4 °F 64.4 °F 73% 29.94 in 15.0 mi SW 12.7 mph - N/A   Partly Cloudy
2:00 AM 73 °F 65 °F 68% 29.92 in 15 mi SW 12.7 mph - -  
2:00 AM 73.4 °F 64.4 °F 73% 29.92 in 15.0 mi SW 13.8 mph - N/A   Clear
3:00 AM 73.4 °F 64.4 °F 73% 29.91 in 15.0 mi SW 10.4 mph - N/A   Overcast
4:00 AM 73.4 °F 62.6 °F 69% 29.89 in 15.0 mi SW 13.8 mph - N/A   Overcast
5:00 AM 73.4 °F 62.6 °F 69% 29.87 in 15.0 mi SW 16.1 mph - N/A   Clear
6:00 AM 71.6 °F 62.6 °F 73% 29.87 in 15.0 mi WSW 10.4 mph 19.6 mph N/A   Overcast
7:00 AM 73.4 °F 62.6 °F 69% 29.86 in 15.0 mi SW 15.0 mph - N/A   Mostly Cloudy
8:00 AM 73.4 °F 62.6 °F 69% 29.88 in 12.0 mi West 12.7 mph 19.6 mph N/A   Overcast
8:29 AM 73.4 °F 64.4 °F 73% 29.90 in 10.0 mi West 16.1 mph 23.0 mph N/A Rain Light Rain Showers
9:00 AM 69.8 °F 68.0 °F 94% 29.90 in 8.0 mi West 6.9 mph - N/A   Overcast
9:38 AM 71.6 °F 64.4 °F 78% 29.89 in 6.0 mi SSW 13.8 mph - N/A Rain Light Rain Showers
10:00 AM 69.8 °F 66.2 °F 88% 29.90 in 6.0 mi SW 12.7 mph - N/A Rain Light Rain Showers
11:00 AM 69.8 °F 68.0 °F 94% 29.90 in 5.0 mi SW 9.2 mph - N/A Rain Light Rain Showers
11:39 AM 69.8 °F 68.0 °F 94% 29.89 in 6.0 mi WSW 6.9 mph - N/A Rain Light Rain Showers
12:00 PM 71.6 °F 68.0 °F 88% 29.89 in 7.0 mi SW 11.5 mph - N/A   Overcast
12:11 PM 73.4 °F 69.8 °F 88% 29.88 in 7.0 mi SW 12.7 mph - N/A   Overcast
12:37 PM 73.4 °F 68.0 °F 83% 29.87 in 7.0 mi SW 11.5 mph 19.6 mph N/A   Overcast
1:00 PM 73.4 °F 68.0 °F 83% 29.87 in 8.0 mi SW 13.8 mph - N/A   Overcast
1:17 PM 73.4 °F 68.0 °F 83% 29.87 in 8.0 mi SW 11.5 mph - N/A Rain Light Rain Showers
2:00 PM 73 °F 68 °F 80% 29.86 in 7 mi WSW 6.9 mph - - Rain Light Rain Showers
2:00 PM 73.4 °F 68.0 °F 83% 29.86 in 8.0 mi WSW 8.1 mph - N/A Rain Light Rain Showers
2:41 PM 73.4 °F 68.0 °F 83% 29.84 in 8.0 mi WSW 9.2 mph - N/A   Overcast
3:00 PM 73.4 °F 68.0 °F 83% 29.84 in 8.0 mi WSW 10.4 mph - N/A   Overcast
3:42 PM 73.4 °F 69.8 °F 88% 29.83 in 8.0 mi SSW 10.4 mph - N/A Rain Light Rain Showers
4:00 PM 73.4 °F 69.8 °F 88% 29.82 in 6.0 mi SW 12.7 mph - N/A Rain Light Rain Showers
4:43 PM 73.4 °F 69.8 °F 88% 29.81 in 6.0 mi WSW 10.4 mph - N/A Rain Light Rain Showers
5:00 PM 71.6 °F 68.0 °F 88% 29.80 in 6.0 mi WSW 12.7 mph - N/A Rain Light Rain Showers
5:27 PM 69.8 °F 68.0 °F 94% 29.81 in 3.0 mi West 21.9 mph 28.8 mph N/A Rain Rain Showers
5:33 PM 69.8 °F 68.0 °F 94% 29.81 in 4.0 mi WSW 16.1 mph 28.8 mph N/A Rain Light Rain Showers
6:00 PM 69.8 °F 68.0 °F 94% 29.81 in 4.0 mi SW 10.4 mph - N/A Rain Light Rain Showers
7:00 PM 69.8 °F 68.0 °F 94% 29.82 in 5.0 mi WSW 9.2 mph - N/A Rain Light Rain Showers
7:19 PM 69.8 °F 68.0 °F 94% 29.81 in 8.0 mi WSW 8.1 mph - N/A   Overcast
8:00 PM 70 °F 68 °F 92% 29.83 in 7 mi WSW 10.4 mph - - Rain Light Rain Showers
8:00 PM 69.8 °F 68.0 °F 94% 29.83 in 7.0 mi WSW 11.5 mph - N/A   Overcast
8:17 PM 69.8 °F 64.4 °F 83% 29.84 in 4.0 mi WNW 18.4 mph 26.5 mph N/A Rain Light Rain Showers
8:33 PM 66.2 °F 62.6 °F 88% 29.84 in 6.0 mi West 5.8 mph - N/A Rain Light Rain Showers
9:00 PM 66.2 °F 62.6 °F 88% 29.86 in 6.0 mi SW 11.5 mph - N/A Rain Light Rain Showers
9:34 PM 66.2 °F 64.4 °F 94% 29.84 in 10.0 mi West 8.1 mph - N/A   Overcast
10:00 PM 66.2 °F 64.4 °F 94% 29.86 in 10.0 mi West 8.1 mph - N/A   Mostly Cloudy
11:00 PM 64.4 °F 60.8 °F 88% 29.88 in 15.0 mi WNW 8.1 mph - N/A   Partly Cloudy